Regional Weather Roundup
Issued by NWS

Home | Current Version | Previous Version | Graphics & Text | Print | Product List | Glossary On
Versions: 1 2 3 4 5 6 7 8 9 10 11 12 13 14 15 16 17 18 19 20 21 22 23 24 25 26 27 28 29 30 31 32 33 34 35 36 37 38 39 40 41 42 43 44 45 46 47 48 49 50
000
ASUS45 KBOU 291707
RWRCO

WEATHER ROUNDUP FOR COLORADO
NATIONAL WEATHER SERVICE DENVER/BOULDER CO
1100 AM MDT MON SEP 29 2014

NOTE: "FAIR" INDICATES FEW OR NO CLOUDS BELOW 12000 FEET WITH NO
SIGNIFICANT WEATHER AND/OR OBSTRUCTIONS TO VISIBILITY.

COZ001>005-013-030-031-291800-
...NORTHWEST COLORADO...

CITY           SKY/WX    TMP DP  RH WIND       PRES   REMARKS
CRAIG          PTSUNNY   54  45  71 CALM      30.05S
HAYDEN         PTSUNNY   54  43  66 E7        30.05S
MEEKER         PTSUNNY   53  44  71 CALM      30.05F
MOUNT WERNER   NOT AVBL
STEAMBOAT SPGS NOT AVBL
WALDEN         MOSUNNY   54  37  54 SW9       30.11F
$$

COZ006>008-011-291800-
...WEST CENTRAL VALLEYS...

CITY           SKY/WX    TMP DP  RH WIND       PRES   REMARKS
GRAND JUNCTION CLOUDY    55  48  77 CALM      30.01S
MONTROSE       CLOUDY    55  51  86 N6        30.04F
EAGLE          PTSUNNY   54  46  76 CALM      30.08F
RIFLE          PTSUNNY   55  47  74 CALM      30.02F
DELTA          RAIN      60  51  72 CALM      30.02F
NUCLA          CLOUDY    52  48  87 NW7       30.07F
$$

COZ017>023-064>068-291800-
...SOUTHWEST COLORADO...

CITY           SKY/WX    TMP DP  RH WIND       PRES   REMARKS
DURANGO        RAIN      48  47  96 E3        30.12F FOG
CORTEZ         MOSUNNY   62  44  51 SW14      30.04F
PAGOSA SPRINGS TSTM      49  49  97 N3        30.13F
TELLURIDE      PTSUNNY  N/A N/A N/A SE14G24   30.14F
WOLF CREEK PAS NOT AVBL
$$

COZ009-010-012-014-032>034-037-058>063-291800-
...CENTRAL COLORADO...

CITY           SKY/WX    TMP DP  RH WIND       PRES   REMARKS
ASPEN          PTSUNNY   51  42  71 N6        30.09F
BUENA VISTA    LGT RAIN  53  42  66 SE16      30.13F
COPPER MTN     MOSUNNY   46  28  49 SE22G30   30.27F
BERTHOUD PASS  PTSUNNY   36  34  93 MISG      30.33F
COTTONWOOD PAS CLOUDY    52  43  71 SE3       30.21F
GUNNISON       PTSUNNY   50  43  76 NW3       30.12F
KREMMLING      SUNNY     55  41  58 CALM      30.10F
LEADVILLE      NOT AVBL
SALIDA         CLOUDY    58  46  64 S12       30.18F
SUNLIGHT       CLOUDY    43  37  81 CALM      30.24F
WILKERSON PASS NOT AVBL
$$

COZ069>075-291800-
...SAN LUIS VALLEY/SANGRE DE CRISTO MOUNTAINS...

CITY           SKY/WX    TMP DP  RH WIND       PRES   REMARKS
ALAMOSA        MOSUNNY   62  48  60 VRB3      30.10F
LA VETA PASS   MOSUNNY   48  39  71 S8G17     30.27F
SAGUACHE       CLOUDY    52  46  82 S6        30.14F
$$

COZ035-036-038>040-291800-
...NORTHERN COLORADO FRONT RANGE...

CITY           SKY/WX    TMP DP  RH WIND       PRES   REMARKS
DENVER INTL AP PTSUNNY   61  49  64 NW5       30.04F
DMNS CITY PARK   N/A     64  51  64 NE1       30.04F
AURORA         PTSUNNY   61  51  67 N3        30.06F
FRONT RANGE AP PTSUNNY   63  54  72 N8        30.06
ERIE MUNI ARPT NOT AVBL
BOULDER MUN AP CLOUDY    59  52  77 NE3       30.05S
CENTENNIAL     PTSUNNY   60  51  72 N5        30.06F
BROOMFIELD     CLOUDY    57  50  77 NE6       30.07S
FORT COLLINS   PTSUNNY   63  46  55 E5        30.06S
LONGMONT       NOT AVBL
$$

COZ041-046-047-076>085-087-088-291800-
...PIKES PEAK/PALMER DIVIDE AND SOUTHERN FOOTHILLS...

CITY           SKY/WX    TMP DP  RH WIND       PRES   REMARKS
COLO. SPRINGS  MOSUNNY   68  48  48 S8        30.05F
A. F. ACADEMY  SUNNY     65  47  52 SE5       30.06F
ELLICOTT       NOT AVBL
FALCON         MOSUNNY   66  47  50 SE6       30.09F
FORT CARSON    SUNNY     67  51  56 S6        30.02F
LIMON          SUNNY     63  52  67 N5        30.04F
MONUMENT HILL  PTSUNNY   55  46  71 N5        30.10F
TRINIDAD       MOSUNNY   72  47  40 VRB7      30.03F
$$

COZ042>045-048>051-090-091-291800-
...NORTHEAST COLORADO...

CITY           SKY/WX    TMP DP  RH WIND       PRES   REMARKS
GREELEY ARPT   MOSUNNY   63  46  55 NW5       30.04F
AKRON          CLOUDY    57  55  93 SW7       30.02F
BURLINGTON     SUNNY     75  55  49 S17G25    30.00F
WRAY           PTSUNNY   74  55  51 S10G16    29.99F
STERLING       NOT AVBL
HOLYOKE        NOT AVBL
FORT MORGAN    PTSUNNY   66  52  61 NE9       30.02F
$$

COZ086-089-092>099-291800-
...SOUTHEAST COLORADO...

CITY           SKY/WX    TMP DP  RH WIND       PRES   REMARKS
PUEBLO         SUNNY     70  52  52 SE7       29.97F
LA JUNTA       SUNNY     79  52  38 SW7G18    29.96F
LAMAR          SUNNY     80  55  42 S16G25    29.94F
SPRINGFIELD      N/A     74  55  51 S25G35    30.02F
$$


USA.gov is the U.S. government's official web portal to all federal, state and local government web resources and services.